Regional Weather Roundup
Issued by NWS

Home | Current Version | Previous Version | Text Only | Print | Product List | Glossary Off
Versions: 1 2 3 4 5 6 7 8 9 10 11 12 13 14 15 16 17 18 19 20 21 22 23 24 25 26 27 28 29 30 31 32 33 34 35 36 37 38 39 40 41 42 43 44 45 46 47 48 49 50

000
ASUS43 KLOT 310410
RWRIL

ILLINOIS REGIONAL WEATHER ROUNDUP
NATIONAL WEATHER SERVICE CHICAGO/ROMEOVILLE IL
1100 PM CDT WED JUL 30 2014

NOTE: "FAIR" INDICATES FEW OR NO CLOUDS BELOW 12,000 FEET WITH NO
SIGNIFICANT WEATHER AND/OR OBSTRUCTIONS TO VISIBILITY.

* THESE STATIONS ARE NOT UNDER NWS QUALITY CONTROL. THEY ALSO MAY NOT
  REPORT WEATHER SUCH AS PRECIPITATION OR FOG.

ILZ001-002-007-009-015-016-024-310500-
NORTHWEST ILLINOIS

CITY           SKY/WX    TMP DP  RH WIND       PRES   REMARKS
MOLINE         CLEAR     63  58  83 S5        30.05S
STERLING*      CLEAR     64  55  72 NW3       30.06R
SAVANNA*       CLEAR     61  58  88 CALM      30.05R
$$

ILZ003-004-008-010-011-017-018-310500-
NORTH CENTRAL ILLINOIS

CITY           SKY/WX    TMP DP  RH WIND       PRES   REMARKS
ROCKFORD       CLEAR     62  55  77 S3        30.06F
FREEPORT*      CLEAR     60  56  85 CALM      30.07S
ROCHELLE*      CLEAR     60  56  86 CALM      30.06R
DE KALB*       CLEAR     61  55  82 CALM      30.05S
PERU*          CLEAR     63  59  86 W6        30.05S
$$

ILZ005-006-012>014-019>023-310500-
NORTHEAST ILLINOIS

CITY           SKY/WX    TMP DP  RH WIND       PRES   REMARKS
CHICAGO-OHARE  CLEAR     64  55  72 SE6       30.04R
CHICAGO-MIDWAY PTCLDY    67  60  78 E5        30.04S
AURORA         CLEAR     60  55  83 N5        30.04S
LANSING*       CLEAR     61  57  89 CALM      30.04S
JOLIET*        CLEAR     64  58  80 CALM      30.05R
WAUKEGAN       CLEAR     57  55  93 CALM      30.03S
DUPAGE AIRPORT CLEAR     64  58  80 CALM      30.04R
KANKAKEE*      PTCLDY    64  61  88 CALM      30.05S
WHEELING       CLEAR     62  57  83 CALM      30.05S
MORRIS*        CLEAR     63  60  91 W5        30.04R
ROMEOVILLE*    CLEAR     64  57  79 SE3       30.04S
NORTHERLY ISL    N/A     64  61  90 E2          N/A
$$

LMZ740>746-310500-
SOUTHERN LAKE MICHIGAN

STATION/POSITION SKY/WX   TEMP    WIND        PRES    VSBY  WAVE
                          AIR SEA DIR/SP/G                  HT/PER
                          (F)     (DEG/KT/KT) (MB)    (MI)  (FT/S)
SOUTHERN BUOY              61 61  210/  6/  8 1017.0R         0
WAUKEGAN HARBOR            63     170/  6/  7   N/A
HARRISON CRIB              64     150/  5/  7   N/A
BURNHAM HARBOR             64     110/  2/  4   N/A
CALUMET HARBOR             65      60/  4/  5 1016.1R
MICHIGAN CITY              63     140/  1/  2   N/A
MICHIGAN CITY 6N           65 69  160/  4/  6   N/A           1/ 3
ST. JOSEPH                 65 68   80/  4/  4   N/A           1
$$

ILZ025>027-034>036-040-047-049-050-058-095>099-310500-
WEST-CENTRAL ILLINOIS

CITY           SKY/WX    TMP DP  RH WIND       PRES   REMARKS
QUINCY         CLEAR     68  59  73 CALM      30.08R
GALESBURG*     CLEAR     62  59  91 CALM      30.07R
MACOMB*          N/A     61  59  95 W3        30.09R
JACKSONVILLE*  CLEAR     63  61  93 CALM      30.08S
PITTSFIELD*    CLEAR     65  62  90 CALM      30.09R
$$

ILZ028>032-037-038-041>044-048-051>054-059>061-310500-
CENTRAL ILLINOIS

CITY           SKY/WX    TMP DP  RH WIND       PRES   REMARKS
PONTIAC        CLEAR     63  61  94 CALM      30.04F
DECATUR        CLEAR     67  60  78 CALM      30.07S
PEORIA         CLEAR     69  59  70 CALM      30.06S
LACON*         CLEAR     63  59  89 CALM      30.05R
LINCOLN*       CLEAR     67  60  78 CALM      30.04S
SPRINGFIELD    CLEAR     64  62  93 SW5       30.07R
TAYLORVILLE    CLEAR     63  61  94 CALM      30.07R
$$

ILZ033-039-045-046-055>057-062-063-310500-
EAST-CENTRAL ILLINOIS

CITY           SKY/WX    TMP DP  RH WIND       PRES   REMARKS
CHAMPAIGN      CLEAR     63  60  90 SW6       30.06S
DANVILLE*      CLEAR     61  60  98 CALM      30.03S
RANTOUL*       CLEAR     65  59  82 CALM      30.07R
MATTOON        CLEAR     64  59  83 CALM      30.06S
PARIS*         CLEAR     60  59  97 CALM      30.07S
$$

ILZ079-100>102-310500-
SOUTHWEST ILLINOIS

CITY           SKY/WX    TMP DP  RH WIND       PRES   REMARKS
ALTON          PTCLDY    65  63  95 CALM      30.07S
BELLEVILLE     MOCLDY    65  64  95 CALM      30.07R
CAHOKIA*       MOCLDY    68  62  81 S3        30.07R
SPARTA*        MOCLDY    64  61  88 CALM      30.08S
$$

ILZ064>066-069>071-074>076-080>082-084>086-088>090-092>094-310500-
SOUTH-CENTRAL ILLINOIS

CITY           SKY/WX    TMP DP  RH WIND       PRES   REMARKS
CARBONDALE     MOCLDY    64  61  90 CALM      30.07S
CAIRO*         MOCLDY    67  62  85 CALM      30.07S
EFFINGHAM*     MOCLDY    64  59  82 CALM      30.08R
MARION         MOCLDY    66  63  88 CALM      30.08S
MT. VERNON     MOCLDY    63  55  77 CALM      30.09R
CENTRALIA*     MOCLDY    63  59  87 CALM      30.08R
SALEM*         PTCLDY   N/A N/A N/A CALM      30.08S
METROPOLIS*    MOCLDY    63  60  90 CALM      30.07S
$$

ILZ067-068-072-073-078-083-087-091-310500-
SOUTHEAST ILLINOIS

CITY           SKY/WX    TMP DP  RH WIND       PRES   REMARKS
LAWRENCEVILLE  PTCLDY    66  62  87 CALM      30.07R
FLORA*         PTCLDY    62  60  92 SW3       30.08R
FAIRFIELD*     MOCLDY    64  63  94 CALM      30.07S
HARRISBURG*    MOCLDY    63  62  97 CALM      30.09S
ROBINSON*      PTCLDY    64  62  93 CALM      30.08R
CARMI*         MOCLDY    63  63 100 CALM      30.07S
$$

ABBREVIATIONS USED IN REMARKS
   TC - TEMPERATURE IN CELSIUS
  WCI - WIND CHILL INDEX
   HX - HEAT INDEX
  VSB - VISIBILITY
$$



USA.gov is the U.S. government's official web portal to all federal, state and local government web resources and services.